This is the latest recevied weather packets stored in our database for station/object KB1YYC. If no packets are shown the sender has not sent any weather packets the latest 10 day(s).
| Time | Temp. | Humidity | Pressure | Rain* | Wind** | Luminosity | Snow |
|---|---|---|---|---|---|---|---|
| 1778024562 | 20° C | 65% | 1006.6 hPa | 0 mm | - | 1 W/m² | - |
| 1778024258 | 20° C | 66% | 1006.5 hPa | 0 mm | - | 3 W/m² | - |
| 1778023956 | 20° C | 66% | 1006.5 hPa | 0 mm | - | 5 W/m² | - |
| 1778023653 | 20° C | 64% | 1006.4 hPa | 0 mm | - | 4 W/m² | - |
| 1778023350 | 20.56° C | 63% | 1006.1 hPa | 0 mm | - | 7 W/m² | - |
| 1778023047 | 20.56° C | 62% | 1006.3 hPa | 0 mm | - | 5 W/m² | - |
| 1778022746 | 20.56° C | 62% | 1006.5 hPa | 0 mm | - | 5 W/m² | - |
| 1778022444 | 21.11° C | 60% | 1006.5 hPa | 0 mm | - | 4 W/m² | - |
| 1778022140 | 21.11° C | 59% | 1006.7 hPa | 0 mm | - | 2 W/m² | - |
| 1778021836 | 21.11° C | 59% | 1006.7 hPa | 0 mm | - | 1 W/m² | - |
| 1778021534 | 21.11° C | 58% | 1006.5 hPa | 0 mm | - | 2 W/m² | - |
| 1778021229 | 21.11° C | 57% | 1006.5 hPa | 0 mm | - | 2 W/m² | - |
| 1778020927 | 21.11° C | 55% | 1006.6 hPa | 0 mm | - | 2 W/m² | - |
| 1778020624 | 20.56° C | 56% | 1006.4 hPa | 0 mm | - | 2 W/m² | - |
| 1778020320 | 20.56° C | 56% | 1005 hPa | 0 mm | - | 3 W/m² | - |
| 1778020016 | 21.11° C | 55% | 1004.6 hPa | 0 mm | - | 12 W/m² | - |
| 1778019712 | 21.11° C | 55% | 1004.4 hPa | 0 mm | - | 43 W/m² | - |
| 1778019410 | 21.11° C | 55% | 1004.4 hPa | 0 mm | - | 72 W/m² | - |
| 1778019106 | 21.11° C | 54% | 1004.3 hPa | 0 mm | - | 68 W/m² | - |
| 1778018804 | 21.11° C | 54% | 1004.2 hPa | 0 mm | - | 70 W/m² | - |
| 1778018501 | 21.11° C | 54% | 1004.2 hPa | 0 mm | - | 72 W/m² | - |
| 1778018198 | 21.67° C | 54% | 1004.1 hPa | 0 mm | - | 67 W/m² | - |
| 1778017897 | 21.67° C | 53% | 1004 hPa | 0 mm | - | 63 W/m² | - |
| 1778017594 | 22.22° C | 52% | 1004.1 hPa | 0 mm | - | 84 W/m² | - |
| 1778017291 | 22.22° C | 51% | 1004 hPa | 0 mm | - | 70 W/m² | - |
* Rain latest hour (hover to see other rain measurements)
** Current wind speed in m/s (hover to see current wind gust speed)